[[{"header":{"parameterUnit":"m.s-1","parameterCategory":1,"la1":30.2991,"la2":30.254,"lo1":-89.0895,"lo2":-89.0444,"dy":0.0017,"dx":0.0017,"nx":28,"ny":28,"refTime":"2025-03-30T21:00:00:Z","depth":0,"parameterNumber":2,"parameterNumberName":"U-component_of_WINDS"},"data":[0,0,0,0,0,0,0,0,0,0,0,0,0,0,0,0,0,0,0,0,0,0,0,0,0,0,0,0,0,0,0,0,0,0,0,0,0,0,0,0,0,0,0,0,0,0,0,0,0,0,0,0,0,0,0,0,0,0,-0.6787,-0.6789,0,-0.6963,-0.6965,-0.6967,-0.7081,-0.7082,-0.7083,-0.7084,-0.7264,-0.7268,-0.7272,0,0,0,0,0,0,0,0,0,0,0,0,0,-0.6547,-0.6551,-0.6786,-0.6789,-0.6791,-0.6963,-0.6965,-0.6968,-0.7081,-0.7082,-0.7083,-0.7084,-0.7262,-0.7267,-0.7272,0,0,0,0,0,0,0,0,0,0,0,0,0,-0.668,-0.6552,-0.6786,-0.6868,-0.6877,-0.6962,-0.6965,-0.6968,-0.7081,-0.7082,-0.7083,-0.7084,-0.7261,-0.7267,-0.7273,-0.729,0,0,-0.7292,-0.7294,0,0,0,0,0,0,0,0,-0.6672,-0.6689,-0.6854,-0.6863,-0.6873,-0.7001,-0.6947,-0.7076,-0.7081,-0.7004,-0.7084,-0.7085,-0.7175,-0.7189,-0.722,-0.7298,-0.7306,-0.7292,-0.7296,-0.7299,-0.73,0,0,0,0,0,0,0,-0.6663,-0.6682,-0.6856,-0.6856,-0.6868,-0.6896,-0.6916,-0.6972,-0.7081,-0.7011,-0.7019,-0.7039,-0.7181,-0.7213,-0.7225,-0.7309,-0.7292,-0.7298,-0.7301,-0.7304,-0.741,-0.7409,0,0,0,0,0,0,-0.6641,-0.6673,-0.6851,-0.6862,-0.6773,-0.69,-0.6922,-0.6959,-0.7081,-0.7101,-0.7038,-0.7043,-0.7202,-0.7217,-0.7231,-0.7259,-0.7299,-0.7304,-0.7308,-0.7411,-0.741,-0.7409,0,0,0,0,0,0,-0.6635,-0.6655,-0.6844,-0.677,-0.6796,-0.6903,-0.6943,-0.6962,-0.6995,-0.7102,-0.7122,-0.7051,-0.7204,-0.7223,-0.7274,-0.7267,-0.7307,-0.7313,-0.7412,-0.741,-0.7409,-0.7314,0,0,0,0,0,0,-0.6628,-0.6653,-0.666,-0.6769,-0.68,-0.6884,-0.6943,-0.6965,-0.7005,-0.7014,-0.7119,-0.7137,-0.7206,-0.7265,-0.7281,-0.7276,-0.7318,-0.7413,-0.7411,-0.741,-0.7318,-0.731,-0.7302,0,0,0,0,0,-0.6619,-0.6626,-0.666,-0.6681,-0.6811,-0.6883,-0.69,-0.6979,-0.7004,-0.7012,-0.7081,-0.7134,-0.7265,-0.7269,-0.7288,-0.7285,-0.7414,-0.7412,-0.741,-0.7322,-0.7311,-0.7302,0,0,0,0,0,0,-0.6514,-0.6642,-0.6681,-0.6724,-0.6792,-0.6902,-0.6915,-0.6965,-0.7027,-0.7033,-0.7128,-0.7151,-0.7193,-0.7245,-0.7246,-0.7308,-0.7346,-0.7347,-0.7272,-0.7263,-0.7255,-0.7242,-0.7323,0,0,0,0,0,-0.6496,-0.6543,-0.6653,-0.668,-0.6712,-0.6807,-0.6842,-0.6897,-0.697,-0.7,-0.7072,-0.7141,-0.7199,-0.7234,-0.7292,-0.7327,-0.7351,-0.7334,-0.7326,-0.7319,-0.7319,-0.7341,-0.7334,-0.7402,-0.7402,-0.7402,0,0,-0.6459,-0.6535,-0.6559,-0.6661,-0.672,-0.6767,-0.6831,-0.6878,-0.6914,-0.7007,-0.706,-0.7115,-0.7199,-0.7242,-0.7265,-0.7287,-0.7306,-0.7316,-0.731,-0.7314,-0.7338,-0.7331,-0.7326,-0.7401,-0.7401,-0.7401,0,0,-0.6415,-0.6478,-0.6507,-0.6565,-0.6653,-0.6716,-0.6723,-0.6826,-0.6867,-0.6922,-0.6993,-0.7036,-0.7133,-0.7189,-0.7231,-0.7208,-0.7259,-0.7225,-0.7182,-0.7202,-0.7197,-0.7192,-0.7184,-0.718,-0.7224,-0.7224,-0.7224,0,-0.6358,-0.6431,-0.6516,-0.6559,-0.6601,-0.6688,-0.6719,-0.6771,-0.6873,-0.69,-0.6924,-0.7046,-0.7109,-0.7166,-0.716,-0.7191,-0.7202,-0.7213,-0.7191,-0.7187,-0.7184,-0.7177,-0.7174,-0.7219,-0.722,-0.7221,-0.7221,0,-0.6356,-0.6406,-0.642,-0.6516,-0.6561,-0.6597,-0.6687,-0.6721,-0.6772,-0.6833,-0.6888,-0.6966,-0.7041,-0.7059,-0.711,-0.7124,-0.7134,-0.7173,-0.7212,-0.7172,-0.7167,-0.7165,-0.7213,-0.7214,-0.7216,-0.7217,0,0,-0.6251,-0.6394,-0.6398,-0.6442,-0.6546,-0.6586,-0.6627,-0.6701,-0.6728,-0.6796,-0.6832,-0.6911,-0.6948,-0.6994,-0.7052,-0.7069,-0.7046,-0.7106,-0.7109,-0.7091,-0.7066,-0.7035,-0.7031,-0.7081,-0.7081,-0.7081,-0.7058,0,-0.6223,-0.6299,-0.6376,-0.6425,-0.6472,-0.6555,-0.659,-0.6657,-0.6715,-0.6763,-0.6828,-0.6882,-0.6926,-0.6955,-0.6976,-0.7044,-0.7042,-0.7047,-0.7114,-0.7116,-0.709,-0.7029,-0.6997,-0.6972,-0.7057,-0.7057,-0.7057,0,-0.6199,-0.6263,-0.6316,-0.6416,-0.6438,-0.6468,-0.6542,-0.6587,-0.6665,-0.6706,-0.6758,-0.6819,-0.6865,-0.69,-0.6965,-0.6967,-0.6999,-0.7037,-0.7038,-0.7046,-0.7083,-0.7035,-0.6967,-0.6962,-0.7055,-0.7055,-0.7055,0,-0.6116,-0.6216,-0.6261,-0.6296,-0.6413,-0.6432,-0.6482,-0.6561,-0.66,-0.6665,-0.6692,-0.6761,-0.6798,-0.685,-0.6928,-0.6946,-0.6984,-0.7026,-0.7019,-0.7017,-0.7023,-0.7021,-0.6958,-0.7044,-0.7044,-0.7045,-0.7045,0,-0.6076,-0.6105,-0.6225,-0.6252,-0.6287,-0.6376,-0.6408,-0.6465,-0.6535,-0.6574,-0.6651,-0.6687,-0.6788,-0.6836,-0.6897,-0.6941,-0.6958,-0.6992,-0.7007,-0.6984,-0.698,-0.7006,-0.701,-0.7044,-0.7044,-0.7044,-0.7044,0,-0.5989,-0.607,-0.6124,-0.623,-0.6258,-0.6279,-0.637,-0.6399,-0.6462,-0.6511,-0.6528,-0.6625,-0.6685,-0.6769,-0.6855,-0.6896,-0.6931,-0.6957,-0.6904,-0.6914,-0.6902,-0.6902,-0.6853,-0.6851,-0.6938,-0.6937,-0.6937,0,-0.5957,-0.5981,-0.609,-0.6122,-0.6169,-0.622,-0.626,-0.6349,-0.6388,-0.6478,-0.6497,-0.6563,-0.662,-0.6713,-0.6791,-0.6857,-0.6884,-0.6863,-0.6895,-0.6871,-0.6883,-0.688,-0.6883,-0.6855,-0.6853,-0.6852,-0.6851,0,-0.5892,-0.5931,-0.5987,-0.6056,-0.6102,-0.6161,-0.6224,-0.6246,-0.6347,-0.6387,-0.6449,-0.6494,-0.6581,-0.6646,-0.6722,-0.6774,-0.6829,-0.6841,-0.6842,-0.6819,-0.6787,-0.6803,-0.6882,-0.6841,-0.6842,-0.6843,-0.6843,-0.6844,-0.5832,-0.5857,-0.5937,-0.5996,-0.6052,-0.6109,-0.6142,-0.6208,-0.6262,-0.634,-0.6389,-0.6448,-0.6526,-0.6635,-0.6683,-0.6731,-0.6754,-0.6756,-0.6757,-0.6756,-0.6748,-0.678,-0.6746,-0.6746,-0.6747,-0.6747,-0.6747,0,-0.577,-0.5826,-0.5879,-0.5964,-0.601,-0.6059,-0.613,-0.6166,-0.6217,-0.6285,-0.634,-0.6411,-0.6474,-0.6558,-0.6627,-0.6649,-0.6676,-0.6664,-0.6663,-0.6674,-0.6724,-0.6716,-0.6641,-0.6641,-0.6641,-0.6641,-0.6641,-0.6641,-0.5744,-0.5789,-0.5837,-0.591,-0.5967,-0.6025,-0.6062,-0.6115,-0.6169,-0.6245,-0.6298,-0.6352,-0.6426,-0.6501,-0.656,-0.6584,-0.6605,-0.6585,-0.6615,-0.6661,-0.667,-0.6679,-0.6672,-0.6589,-0.6589,-0.6561,-0.6561,-0.656]},{"header":{"parameterUnit":"m.s-1","parameterCategory":1,"la1":30.2991,"la2":30.254,"lo1":-89.0895,"lo2":-89.0444,"dy":0.0017,"dx":0.0017,"nx":28,"ny":28,"refTime":"2025-03-30T21:00:00:Z","depth":0,"parameterNumber":3,"parameterNumberName":"V-component_of_WINDS"},"data":[0,0,0,0,0,0,0,0,0,0,0,0,0,0,0,0,0,0,0,0,0,0,0,0,0,0,0,0,0,0,0,0,0,0,0,0,0,0,0,0,0,0,0,0,0,0,0,0,0,0,0,0,0,0,0,0,0,0,4.3664,4.3665,0,4.3791,4.3792,4.3794,4.3816,4.3815,4.3814,4.3813,4.3947,4.3951,4.3956,0,0,0,0,0,0,0,0,0,0,0,0,0,4.3446,4.345,4.3663,4.3665,4.3667,4.379,4.3792,4.3794,4.3816,4.3815,4.3814,4.3812,4.3945,4.395,4.3956,0,0,0,0,0,0,0,0,0,0,0,0,0,4.3553,4.3451,4.3663,4.3692,4.3696,4.379,4.3792,4.3794,4.3816,4.3815,4.3813,4.3812,4.3943,4.395,4.3957,4.4031,0,0,4.3978,4.3981,0,0,0,0,0,0,0,0,4.3547,4.3561,4.3687,4.3691,4.3695,4.3786,4.3765,4.3874,4.3817,4.3771,4.3813,4.3811,4.3895,4.3905,4.3933,4.4037,4.4043,4.3978,4.3982,4.3985,4.3987,0,0,0,0,0,0,0,4.354,4.3556,4.3714,4.3688,4.3694,4.3701,4.3715,4.3785,4.384,4.3775,4.3777,4.3791,4.3897,4.3926,4.3936,4.4045,4.3978,4.3984,4.3988,4.3991,4.4221,4.4223,0,0,0,0,0,0,4.3526,4.355,4.371,4.3718,4.3616,4.3707,4.3722,4.3758,4.384,4.385,4.3793,4.3792,4.3915,4.3928,4.3941,4.4036,4.3985,4.3992,4.3996,4.4219,4.4222,4.4224,0,0,0,0,0,0,4.3522,4.354,4.3705,4.3634,4.3656,4.3712,4.3753,4.3762,4.3791,4.3853,4.3863,4.3812,4.3915,4.3931,4.4009,4.4041,4.3995,4.4001,4.4217,4.422,4.4223,4.4224,0,0,0,0,0,0,4.3515,4.3539,4.3566,4.3635,4.3659,4.3769,4.3755,4.3765,4.3802,4.3803,4.3874,4.3885,4.3915,4.3999,4.4016,4.4049,4.4006,4.4214,4.4218,4.4222,4.4222,4.4227,4.4232,0,0,0,0,0,4.3507,4.3561,4.3567,4.3586,4.3694,4.3771,4.3785,4.3817,4.3805,4.3834,4.3874,4.3882,4.4034,4.4007,4.4026,4.4062,4.4212,4.4217,4.4221,4.4219,4.4226,4.4231,0,0,0,0,0,0,4.3495,4.3571,4.3578,4.3655,4.3706,4.3774,4.3812,4.3823,4.3879,4.3877,4.3916,4.3933,4.4009,4.4043,4.4011,4.414,4.4123,4.4131,4.4115,4.4121,4.4126,4.4117,4.4012,0,0,0,0,0,4.3501,4.3555,4.3619,4.3681,4.3707,4.3755,4.3789,4.381,4.3865,4.3887,4.3933,4.3987,4.4047,4.4086,4.4145,4.4227,4.4244,4.4262,4.4266,4.427,4.4277,4.4327,4.4336,4.4239,4.4238,4.4238,0,0,4.3515,4.3563,4.3595,4.368,4.3722,4.3779,4.3773,4.3833,4.3876,4.3896,4.3973,4.4009,4.4072,4.4153,4.4191,4.4184,4.4308,4.4276,4.4278,4.4284,4.4332,4.4341,4.4349,4.4242,4.4241,4.4241,0,0,4.3569,4.361,4.3667,4.371,4.3773,4.3806,4.3819,4.3887,4.3911,4.3988,4.4005,4.4059,4.4161,4.4206,4.4243,4.4317,4.4328,4.4336,4.4361,4.4409,4.4417,4.4424,4.4453,4.4462,4.4343,4.4343,4.4343,0,4.3578,4.3663,4.3696,4.3756,4.3794,4.3815,4.3875,4.3915,4.3995,4.4022,4.4013,4.4144,4.4188,4.4281,4.43,4.4328,4.4347,4.4328,4.4412,4.442,4.4427,4.4455,4.4466,4.4343,4.4343,4.4343,4.4343,0,4.3673,4.3732,4.3771,4.3847,4.389,4.395,4.3994,4.4034,4.4052,4.4086,4.4166,4.422,4.4291,4.4315,4.4333,4.4412,4.4406,4.4404,4.4388,4.4436,4.4464,4.4474,4.4344,4.4344,4.4344,4.4343,0,0,4.3722,4.3817,4.3831,4.3867,4.394,4.3987,4.4049,4.4118,4.4153,4.4208,4.4263,4.4351,4.4351,4.4392,4.4416,4.4457,4.4516,4.4451,4.4453,4.4463,4.461,4.4612,4.4623,4.4523,4.4526,4.4527,4.4605,0,4.3786,4.3895,4.3928,4.4021,4.4078,4.41,4.4154,4.4206,4.4241,4.4295,4.4334,4.4396,4.4389,4.4415,4.4457,4.45,4.4546,4.4495,4.4577,4.458,4.4561,4.4637,4.4639,4.4709,4.4616,4.4618,4.4619,0,4.3875,4.3931,4.403,4.4098,4.4123,4.4171,4.4239,4.429,4.4351,4.4374,4.4421,4.4442,4.4511,4.449,4.4587,4.4551,4.4587,4.4614,4.4617,4.4627,4.4603,4.4651,4.4733,4.4744,4.4636,4.4634,4.4633,0,4.3903,4.4004,4.4077,4.4107,4.4187,4.4222,4.4257,4.4316,4.4357,4.4417,4.4444,4.4511,4.4548,4.4601,4.4641,4.4622,4.4735,4.4717,4.4758,4.4757,4.4781,4.4779,4.4871,4.4802,4.4802,4.4801,4.4801,0,4.3972,4.4032,4.4091,4.4135,4.4205,4.4243,4.4311,4.4348,4.4401,4.4455,4.4479,4.453,4.4578,4.4636,4.4668,4.4745,4.4761,4.4783,4.4791,4.4782,4.4779,4.4806,4.4803,4.4804,4.4804,4.4803,4.4803,0,4.4015,4.4056,4.4137,4.4208,4.4227,4.4275,4.4336,4.4382,4.4418,4.4487,4.4506,4.4562,4.4632,4.4677,4.4766,4.4788,4.4873,4.4878,4.4852,4.4856,4.4895,4.4891,4.5009,4.5027,4.4944,4.4944,4.4945,0,4.4056,4.4103,4.4178,4.4216,4.4252,4.4312,4.4354,4.4394,4.4437,4.4511,4.4549,4.4621,4.468,4.4792,4.4842,4.4912,4.492,4.4957,4.4931,4.4921,4.4923,4.4921,4.4927,4.4961,4.4962,4.4962,4.4963,0,4.4126,4.4145,4.4203,4.427,4.4319,4.4373,4.4428,4.4458,4.4508,4.4556,4.4627,4.4673,4.4765,4.4837,4.4912,4.4951,4.4967,4.4971,4.4984,4.4976,4.4959,4.4971,4.4865,4.4968,4.4967,4.4967,4.4967,4.4967,4.4172,4.4215,4.4276,4.4341,4.4386,4.4437,4.4484,4.4526,4.4586,4.4663,4.4684,4.476,4.4823,4.4925,4.4966,4.5027,4.5023,4.5042,4.5047,4.5051,4.5053,4.4949,4.5041,4.5041,4.5041,4.5041,4.5041,0,4.4245,4.4285,4.4344,4.442,4.4472,4.4481,4.4543,4.4586,4.4652,4.4709,4.4767,4.4852,4.4922,4.4979,4.5052,4.5091,4.51,4.5109,4.5107,4.5117,4.5052,4.5034,4.51,4.51,4.51,4.51,4.51,4.51,4.4289,4.4364,4.439,4.4489,4.453,4.4603,4.4638,4.4687,4.4733,4.4825,4.4884,4.492,4.4978,4.5056,4.5122,4.5138,4.5165,4.5172,4.5189,4.5127,4.5121,4.5115,4.5098,4.5177,4.5177,4.5249,4.525,4.5251]}]]